Weather History for KEGV - February, 2013

Change the Weather History Date:

Thursday, February 28, 2013

  Actual Average (KRHI) Record (KRHI)
Temperature  
Mean Temperature 24 °F 21 °F  
Max Temperature 28 °F 31 °F 48 °F (1985)
Min Temperature 19 °F 11 °F -25 °F (2014)
Degree Days  
Heating Degree Days 42 44  
Month to date heating degree days 1360  
Since 1 July heating degree days 6622  
Cooling Degree Days 0 0  
Month to date cooling degree days 0  
Year to date cooling degree days 0  
Moisture  
Dew Point 18 °F    
Average Humidity 77    
Maximum Humidity 100    
Minimum Humidity 64    
Precipitation  
Precipitation 0.00 in 0.04 in 0.99 in (1939)
Month to date precipitation 0.93  
Year to date precipitation 2.04  
Snow  
Snow 0.00 in - 10.00 in (1939)
Month to date snowfall  
Since 1 July snowfall  
Snow Depth -    
Sea Level Pressure  
Sea Level Pressure 30.02 in    
Wind  
Wind Speed 14 mph (NNE)    
Max Wind Speed 21 mph    
Max Gust Speed 31 mph    
Visibility 8 miles    
Events Snow    
T = Trace of Precipitation, MM = Missing Value Source: NWS Daily Summary

Daily Weather History Graph

Daily Weather History Graph

Search for Another Location

Airport or City:

Trip Planner

Search our weather history database for the weather conditions in past years. The results will help you decide how hot, cold, wet, or windy it might be!

Date:

Astronomy

Feb. 28, 2013 Rise Set
Actual Time 6:37 AM CST 5:42 PM CST
Civil Twilight 6:07 AM CST 6:12 PM CST
Nautical Twilight 5:32 AM CST 6:47 PM CST
Astronomical Twilight 4:58 AM CST 7:21 PM CST
Moon 9:24 PM CST (2/28) 7:34 AM CST (2/28)
Length of Visible Light 12h 05m
Length of Day
11h 05m
Waning Gibbous, 90% of the Moon is Illuminated
Feb 28
Waning Gibbous
Mar 4
Last Quarter
Mar 11
New
Mar 19
First Quarter
Mar 27
Full

Hourly Weather History & Observations

Time (CST) Temp. Windchill Dew Point Humidity Pressure Visibility Wind Dir Wind Speed Gust Speed Precip Events Conditions
12:15 AM 28.4 °F 17.5 °F 23.0 °F 80% 29.86 in 10.0 mi NNE 13.8 mph 17.3 mph N/A   Overcast
12:35 AM 28.4 °F 19.1 °F 23.0 °F 80% 29.86 in 10.0 mi North 10.4 mph 19.6 mph N/A   Overcast
12:55 AM 28.4 °F 19.1 °F 23.0 °F 80% 29.86 in 10.0 mi North 10.4 mph 18.4 mph N/A   Overcast
1:15 AM 28.4 °F 18.0 °F 23.0 °F 80% 29.87 in 10.0 mi North 12.7 mph 20.7 mph N/A   Overcast
1:35 AM 28.4 °F 17.0 °F 23.0 °F 80% 29.88 in 10.0 mi NNE 15.0 mph 21.9 mph N/A   Overcast
1:55 AM 28.4 °F 18.0 °F 23.0 °F 80% 29.88 in 7.0 mi NNE 12.7 mph 20.7 mph N/A   Overcast
2:15 AM 28.4 °F 17.0 °F 23.0 °F 80% 29.88 in 7.0 mi North 15.0 mph 21.9 mph N/A   Overcast
2:35 AM 28.4 °F 18.0 °F 23.0 °F 80% 29.88 in 7.0 mi NNE 12.7 mph 19.6 mph N/A   Overcast
2:55 AM 28.4 °F 17.0 °F 23.0 °F 80% 29.88 in 7.0 mi North 15.0 mph 20.7 mph N/A   Overcast
3:15 AM 28.4 °F 20.4 °F 23.0 °F 80% 29.89 in 7.0 mi North 8.1 mph 17.3 mph N/A   Overcast
3:35 AM 26.6 °F 15.7 °F 26.6 °F 100% 29.89 in 7.0 mi North 12.7 mph - N/A   Overcast
3:55 AM 26.6 °F 14.3 °F 23.0 °F 86% 29.90 in 7.0 mi North 16.1 mph 24.2 mph N/A   Overcast
4:15 AM 26.6 °F 15.7 °F 23.0 °F 86% 29.90 in 10.0 mi NNE 12.7 mph 19.6 mph N/A   Overcast
4:55 AM 26.6 °F 16.2 °F 23.0 °F 86% 29.91 in 10.0 mi North 11.5 mph - N/A   Overcast
5:15 AM 26.6 °F 15.7 °F 23.0 °F 86% 29.92 in 10.0 mi NNE 12.7 mph 20.7 mph N/A   Overcast
5:35 AM 26.6 °F 15.7 °F 23.0 °F 86% 29.93 in 5.0 mi NNE 12.7 mph - N/A   Overcast
5:55 AM 26.6 °F 14.7 °F 23.0 °F 86% 29.93 in 7.0 mi NNE 15.0 mph 25.3 mph N/A   Overcast
6:15 AM 26.6 °F 14.3 °F 21.2 °F 80% 29.94 in 5.0 mi NNE 16.1 mph 26.5 mph N/A   Overcast
6:35 AM 26.6 °F 13.8 °F 21.2 °F 80% 29.95 in 7.0 mi North 17.3 mph 21.9 mph N/A   Overcast
6:55 AM 26.6 °F 15.7 °F 21.2 °F 80% 29.96 in 3.0 mi NNE 12.7 mph 24.2 mph N/A   Overcast
7:15 AM 24.8 °F 13.4 °F 21.2 °F 86% 29.96 in 5.0 mi NNE 12.7 mph 21.9 mph N/A   Overcast
7:35 AM 24.8 °F 12.9 °F 21.2 °F 86% 29.97 in 4.0 mi NNE 13.8 mph 24.2 mph N/A Snow Light Snow
7:55 AM 24.8 °F 12.9 °F 19.4 °F 80% 29.97 in 7.0 mi NNE 13.8 mph 21.9 mph N/A   Overcast
8:15 AM 24.8 °F 11.1 °F 21.2 °F 86% 29.98 in 7.0 mi NNE 18.4 mph 23.0 mph N/A   Overcast
8:35 AM 23.0 °F 8.3 °F 19.4 °F 86% 29.98 in 4.0 mi NNE 19.6 mph 23.0 mph N/A   Overcast
8:55 AM 23.0 °F 11.1 °F 19.4 °F 86% 29.99 in 5.0 mi NNE 12.7 mph 23.0 mph N/A   Overcast
9:15 AM 24.8 °F 13.4 °F 19.4 °F 80% 29.99 in 5.0 mi NNE 12.7 mph 20.7 mph N/A Snow Light Snow
9:35 AM 24.8 °F 12.9 °F 19.4 °F 80% 30.00 in 5.0 mi NNE 13.8 mph - N/A Snow Light Snow
9:55 AM 24.8 °F 12.9 °F 19.4 °F 80% 30.01 in 3.0 mi NNE 13.8 mph 21.9 mph N/A Snow Light Snow
10:15 AM 24.8 °F 11.9 °F 17.6 °F 74% 30.01 in 2.5 mi NNE 16.1 mph 31.1 mph N/A   Haze
10:35 AM 24.8 °F 13.4 °F 17.6 °F 74% 30.01 in 7.0 mi NNE 12.7 mph 23.0 mph N/A Snow Light Snow
11:15 AM 23.0 °F 9.6 °F 17.6 °F 80% 30.02 in 3.0 mi NE 16.1 mph 20.7 mph N/A Snow Light Snow
11:35 AM 24.8 °F 11.9 °F 17.6 °F 74% 30.03 in 5.0 mi NNE 16.1 mph 24.2 mph N/A Snow Light Snow
11:55 AM 24.8 °F 10.7 °F 15.8 °F 69% 30.03 in 7.0 mi NNE 19.6 mph 27.6 mph N/A   Overcast
12:15 PM 24.8 °F 11.1 °F 15.8 °F 69% 30.04 in 10.0 mi NNE 18.4 mph 26.5 mph N/A Snow Light Snow
12:35 PM 24.8 °F 12.9 °F 15.8 °F 69% 30.04 in 10.0 mi NNE 13.8 mph 23.0 mph N/A   Overcast
12:55 PM 24.8 °F 11.5 °F 15.8 °F 69% 30.04 in 10.0 mi NNE 17.3 mph 23.0 mph N/A   Overcast
1:15 PM 24.8 °F 12.4 °F 15.8 °F 69% 30.04 in 10.0 mi NE 15.0 mph 20.7 mph N/A   Overcast
1:35 PM 24.8 °F 12.9 °F 14.0 °F 64% 30.04 in 10.0 mi NNE 13.8 mph - N/A   Overcast
1:55 PM 24.8 °F 12.4 °F 14.0 °F 64% 30.04 in 10.0 mi NE 15.0 mph 23.0 mph N/A   Overcast
2:15 PM 24.8 °F 11.9 °F 14.0 °F 64% 30.05 in 10.0 mi NNE 16.1 mph 23.0 mph N/A   Overcast
2:35 PM 24.8 °F 12.4 °F 14.0 °F 64% 30.05 in 10.0 mi NNE 15.0 mph 19.6 mph N/A Snow Light Snow
2:55 PM 24.8 °F 10.3 °F 15.8 °F 69% 30.05 in 10.0 mi NE 20.7 mph - N/A Snow Light Snow
3:35 PM 24.8 °F 12.4 °F 14.0 °F 64% 30.06 in 10.0 mi NNE 15.0 mph 23.0 mph N/A   Overcast
3:55 PM 23.0 °F 10.6 °F 14.0 °F 68% 30.07 in 7.0 mi NNE 13.8 mph 20.7 mph N/A Snow Light Snow
4:15 PM 23.0 °F 11.1 °F 14.0 °F 68% 30.08 in 10.0 mi NNE 12.7 mph 23.0 mph N/A Snow Light Snow
4:55 PM 23.0 °F 10.6 °F 14.0 °F 68% 30.09 in 10.0 mi NNE 13.8 mph 23.0 mph N/A Snow Light Snow
5:15 PM 21.2 °F 7.8 °F 14.0 °F 74% 30.10 in 10.0 mi NNE 15.0 mph 24.2 mph N/A Snow Light Snow
5:35 PM 21.2 °F 6.0 °F 12.2 °F 68% 30.10 in 10.0 mi NE 19.6 mph 25.3 mph N/A   Overcast
5:55 PM 21.2 °F 6.8 °F 12.2 °F 68% 30.11 in 10.0 mi NNE 17.3 mph - N/A Snow Light Snow
6:15 PM 21.2 °F 6.8 °F 12.2 °F 68% 30.12 in 10.0 mi NNE 17.3 mph 24.2 mph N/A Snow Light Snow
6:35 PM 21.2 °F 8.3 °F 14.0 °F 74% 30.13 in 10.0 mi NNE 13.8 mph 18.4 mph N/A Snow Light Snow
6:55 PM 21.2 °F 9.5 °F 14.0 °F 74% 30.13 in 10.0 mi NNE 11.5 mph 20.7 mph N/A Snow Light Snow
7:15 PM 19.4 °F 6.6 °F 12.2 °F 74% 30.13 in 10.0 mi NNE 12.7 mph 24.2 mph N/A Snow Light Snow
7:35 PM 19.4 °F 6.0 °F 14.0 °F 80% 30.13 in 10.0 mi NNE 13.8 mph 19.6 mph N/A Snow Light Snow
7:55 PM 19.4 °F 4.5 °F 12.2 °F 74% 30.14 in 10.0 mi NNE 17.3 mph 25.3 mph N/A Snow Light Snow
8:15 PM 19.4 °F 5.0 °F 12.2 °F 74% 30.15 in 10.0 mi NNE 16.1 mph 24.2 mph N/A Snow Light Snow
8:35 PM 19.4 °F 5.0 °F 12.2 °F 74% 30.15 in 10.0 mi NNE 16.1 mph 20.7 mph N/A Snow Light Snow
8:55 PM 19.4 °F 7.9 °F 12.2 °F 74% 30.16 in 10.0 mi NNE 10.4 mph 17.3 mph N/A Snow Light Snow
9:15 PM 19.4 °F 8.6 °F 14.0 °F 80% 30.16 in 10.0 mi NNE 9.2 mph - N/A Snow Light Snow
9:35 PM 19.4 °F 6.0 °F 14.0 °F 80% 30.16 in 10.0 mi NNE 13.8 mph 17.3 mph N/A Snow Light Snow
9:55 PM 19.4 °F 6.0 °F 14.0 °F 80% 30.15 in 10.0 mi NNE 13.8 mph 18.4 mph N/A Snow Light Snow
10:55 PM 21.2 °F 10.1 °F 12.2 °F 68% 30.15 in 10.0 mi NNE 10.4 mph - N/A   Overcast
11:15 PM 19.4 °F 8.6 °F 12.2 °F 74% 30.15 in 10.0 mi NNE 9.2 mph - N/A   Overcast
11:35 PM 19.4 °F 7.9 °F 12.2 °F 74% 30.15 in 10.0 mi NNE 10.4 mph - N/A   Overcast
11:55 PM 19.4 °F 11.5 °F 12.2 °F 74% 30.15 in 10.0 mi North 5.8 mph - N/A   Overcast